Regional Weather Roundup
Issued by NWS

Home | Current Version | Previous Version | Text Only | Print | Product List | Glossary On
Versions: 1 2 3 4 5 6 7 8 9 10 11 12 13 14 15 16 17 18 19 20 21 22 23 24 25 26 27 28 29 30 31 32 33 34 35 36 37 38 39 40 41 42 43 44 45 46 47 48 49 50
000
ASUS43 KDMX 302107
RWRIA

WEATHER ROUNDUP FOR IOWA
NATIONAL WEATHER SERVICE DES MOINES IA
400 PM CDT WED JUL 30 2014

NOTE: "FAIR" INDICATES FEW OR NO CLOUDS BELOW 12,000 FEET WITH NO
SIGNIFICANT WEATHER AND/OR OBSTRUCTIONS TO VISIBILITY.

* - THESE STATIONS ARE NOT NWS STATIONS...THUS NOT UNDER NWS
QUALITY CONTROL.  THEY ALSO DO NOT REPORT WEATHER SUCH
AS PRECIPITATION OR FOG.

IAZ001>003-012>014-020>022-031>034-043>046-302200-
   NORTHWEST IOWA

CITY           SKY/WX    TMP DP  RH WIND       PRES   REMARKS
CARROLL *      MOSUNNY   77  55  47 NE5       30.11F
CHEROKEE *     PTSUNNY   77  54  44 N5        30.12F
DENISON *      SUNNY     77  54  44 VRB5      30.11S
LE MARS *      MOSUNNY   79  54  41 W5        30.13S
ORANGE CITY *  MOSUNNY   79  46  31 CALM      30.13F
SHELDON *      SUNNY     75  52  43 CALM      30.12F
SIOUX CITY     MOSUNNY   80  53  39 CALM      30.12F HX  80
SPENCER        MOSUNNY   79  53  40 N3        30.13S
STORM LAKE *   SUNNY     75  57  53 NW5       30.13F
$$

IAZ055>058-069>071-079>083-090>094-302200-
   SOUTHWEST IOWA

CITY           SKY/WX    TMP DP  RH WIND       PRES   REMARKS
ATLANTIC *     SUNNY     75  54  46 NE7       30.11S
AUDUBON *      MOSUNNY   79  57  47 CALM      30.13F HX  80
CLARINDA *     MOSUNNY   79  55  44 CALM      30.11F
COUNCIL BLFS * MOSUNNY   77  55  47 CALM      30.11S
CRESTON *      MOSUNNY   75  52  43 CALM      30.11F
HARLAN  *      MOSUNNY   77  54  44 NE8       30.15F
LAMONI         MOSUNNY   80  53  39 VRB3      30.10F HX  80
RED OAK *      SUNNY     79  55  44 VRB6      30.11F
SHENANDOAH *   MOSUNNY   81  54  39 E5        30.11F HX  80
$$

IAZ047>049-059>061-072>074-084-302200-
   CENTRAL IOWA

CITY           SKY/WX    TMP DP  RH WIND       PRES   REMARKS
AMES           SUNNY     80  53  39 VRB5      30.09F HX  80
ANKENY *       MOSUNNY   79  54  41 CALM      30.09F
CHARITON *     MOSUNNY   79  54  41 N6        30.10S
DES MOINES     MOSUNNY   82  54  37 NW8       30.08F HX  81
GRINNELL*      MOSUNNY   77  55  47 W3        30.09F
KNOXVILLE *    MOSUNNY   79  55  44 N8        30.08S
MARSHALLTOWN   MOSUNNY   80  57  45 N6        30.08F HX  80
PELLA *        SUNNY     81  57  44 NW7       30.10S HX  81
PERRY *          N/A     77  55  47 CALM      30.10F
$$

IAZ004>006-015-016-023>025-035-036-302200-
   NORTH CENTRAL IOWA

CITY           SKY/WX    TMP DP  RH WIND       PRES   REMARKS
ALGONA *       SUNNY     77  55  47 N6        30.11F
CLARION *      SUNNY     79  55  44 VRB7      30.10F
ESTHERVILLE    MOSUNNY   76  54  46 VRB3      30.11F
FORT DODGE *   MOSUNNY   79  57  47 N5        30.11F HX  80
MASON CITY     PTSUNNY   80  56  43 N10       30.10F HX  80
FOREST CITY *  MOSUNNY   77  57  50 E8        30.10S
IOWA FALLS *   PTSUNNY   79  57  47 NW5       30.10F HX  80
$$

IAZ007>011-017>019-026>030-037>042-050>054-066-302200-
   NORTHEAST IOWA

CITY           SKY/WX    TMP DP  RH WIND       PRES   REMARKS
CEDAR RAPIDS   MOSUNNY   79  58  48 NW10      30.06F HX  80
CHARLES CITY * SUNNY     77  59  53 NW8       30.08F
CLINTON *      PTSUNNY   79  61  53 NW6       30.08S HX  80
DECORAH *      PTSUNNY   75  59  57 NW8G14    30.06F
DUBUQUE        MOSUNNY   77  57  50 N9        30.06F
MONTICELLO *   SUNNY     79  59  50 NW9       30.05F HX  80
OELWEIN *      MOSUNNY   77  57  50 NW7       30.08S
WATERLOO       PTSUNNY   80  57  45 NW10      30.06F HX  80
$$

IAZ064-065-067-068-078-302200-
   EAST CENTRAL IOWA

CITY           SKY/WX    TMP DP  RH WIND       PRES   REMARKS
DAVENPORT      MOSUNNY   77  58  51 NW8       30.06S
IOWA CITY      MOSUNNY   80  58  46 NW12      30.07F HX  80
MT. PLEASANT * MOSUNNY   81  54  39 NW8       30.07F HX  80
MUSCATINE *    SUNNY     82  55  39 N5G13     30.06F HX  82
QUAD CITIES    SUNNY     82  57  42 NW10      30.04F HX  82
$$

IAZ062-063-075>077-085>089-095>099-302200-
   SOUTHEAST IOWA

CITY           SKY/WX    TMP DP  RH WIND       PRES   REMARKS
BURLINGTON     SUNNY     80  56  43 NW5       30.06F HX  80
FAIRFIELD *    SUNNY     77  61  57 N6        30.08S
FORT MADISON * MOSUNNY   81  59  47 NW5       30.08F HX  81
KEOKUK *       SUNNY     79  59  50 NW9       30.07S HX  80
OSKALOOSA *      N/A     79  61  53 N8        30.08F HX  80
CENTERVILLE *  SUNNY     79  55  44 CALM      30.10F
OTTUMWA        MOSUNNY   78  59  51 N6        30.06F
WASHINGTON *   SUNNY     79  61  53 NW6G12    30.07F HX  80
$$

ABBREVIATIONS USED IN REMARKS
   TC - TEMPERATURES IN CELSIUS
  WCI - WIND CHILL INDEX
   HX - HEAT INDEX
  VSB - VISIBILITY
$$




USA.gov is the U.S. government's official web portal to all federal, state and local government web resources and services.